Location: Newark
(48.2300°N, 0.3056°W)
Time: 01:08:21
(UTC+00:00)

Envisat - Visible Passes

Search period start: 21 October 2019 00:00
Search period end: 31 October 2019 00:00
Orbit: 764 x 766 km, 98.1° (Epoch: 20 October)

Date Brightness Start Highest point End Pass type
(mag) Time Alt. Az. Time Alt. Az. Time Alt. Az.
21 Oct 6.2 05:39:02 10° NE 05:41:53 15° E 05:44:43 10° ESE visible
21 Oct 4.2 18:34:55 10° S 18:39:45 44° W 18:44:37 10° NNW visible
22 Oct 3.0 17:57:48 10° SSE 18:02:53 89° WSW 18:08:00 10° NNW visible
22 Oct 6.1 19:40:21 10° WSW 19:42:39 13° W 19:44:57 10° WNW visible
23 Oct 5.2 19:01:11 10° SSW 19:05:26 27° W 19:09:43 10° NW visible
24 Oct 6.5 05:28:38 10° ENE 05:30:27 12° E 05:32:17 10° ESE visible
24 Oct 3.8 18:23:28 10° S 18:28:26 54° W 18:33:27 10° NNW visible
25 Oct 2.9 17:46:34 10° SSE 17:51:38 75° ENE 17:56:43 10° N visible
25 Oct 5.9 19:28:07 10° SW 19:31:13 16° W 19:34:22 10° NW visible
26 Oct 6.0 05:52:36 10° NE 05:56:19 20° E 06:00:00 10° SE visible
26 Oct 4.8 18:49:32 10° SSW 18:54:05 33° W 18:58:40 10° NNW visible
27 Oct 3.4 18:12:05 10° S 18:17:08 67° WSW 18:22:13 10° NNW visible
28 Oct 3.0 17:35:24 10° SSE 17:40:23 61° ENE 17:45:25 10° N visible
28 Oct 5.6 19:16:08 10° SW 19:19:50 20° W 19:23:33 10° NW visible
29 Oct 6.1 05:41:47 10° NE 05:44:55 16° E 05:48:01 10° SE visible
29 Oct 4.4 18:37:58 10° SSW 18:42:44 40° W 18:47:32 10° NNW visible
30 Oct 3.1 18:00:46 10° SSE 18:05:51 83° WSW 18:10:59 10° NNW visible
30 Oct 6.2 19:43:51 10° WSW 19:45:41 12° W 19:47:31 10° WNW visible
